GORIZONT 8 [-]

Last updated on Aug. 13, 2020, 5:30 a.m. UTC

1 14532U 83118A   20225.64363241 -.00000172  00000-0  00000+0 0  9996
2 14532  13.4425 331.5555 0027833 126.8830 225.3132  0.98270826 99563
UTC
Height (km)
Latitude
Longitude
Inclination
Orbital Period
UTC large
Height (km)
Speed (km/s)
/
Latitude / Longitude
Inclination (degrees)
Orbital Period (minutes)
Azimuth
Elevation
Range (km)
Doppler Factor
iOS Compass Heading
iOS Angle

Next 30 passes for location: Hong Kong

Rise time Rise Azimuth (degrees) Set time Set Azimuth (degrees) Duration Max altitude (degrees)

No matching passes for this satellites